,,,PA_Meas_PMT16A,,PR_Meas_QMR101_102,,RH_Meas_QMH101,,SR_Meas_QMS101,,TA_Meas_QMH101,,GenWind,,GenWind,
date,time,status,PA,status,PR,status,RH,status,SR,status,TA,status,DirAvg,status,SpdAvg,
2009-11-27, 00:00:05,VALID,1010.66,VALID,0,VALID,67.6938,VALID,0,VALID,23.9668,VALID,64,VALID,0.777734,
2009-11-27, 00:01:05,VALID,1010.64,VALID,0,VALID,67.7014,VALID,0,VALID,23.9473,VALID,64,VALID,0.311719,
2009-11-27, 00:02:05,VALID,1010.67,VALID,0,VALID,67.7167,VALID,0,VALID,23.926,VALID,48,VALID,0.769141,
2009-11-27, 00:03:05,VALID,1010.64,VALID,0,VALID,67.7472,VALID,0,VALID,23.926,VALID,89,VALID,0.645703,
2009-11-27, 00:04:05,VALID,1010.63,VALID,0,VALID,67.7624,VALID,0,VALID,23.9278,VALID,82,VALID,0.465234,
2009-11-27, 00:05:05,VALID,1010.64,VALID,0,VALID,67.7624,VALID,0,VALID,23.9278,VALID,59,VALID,0.788281,
2009-11-27, 00:06:05,VALID,1010.62,VALID,0,VALID,67.7701,VALID,0,VALID,23.9065,VALID,83,VALID,0.958984,
2009-11-27, 00:07:05,VALID,1010.59,VALID,0,VALID,67.7853,VALID,0,VALID,23.8871,VALID,78,VALID,0.933594,
2009-11-27, 00:08:05,VALID,1010.59,VALID,0,VALID,67.8006,VALID,0,VALID,23.8889,VALID,82,VALID,1.04492,
2009-11-27, 00:09:05,VALID,1010.58,VALID,0,VALID,67.8234,VALID,0,VALID,23.8676,VALID,78,VALID,1.04453,
2009-11-27, 00:10:05,VALID,1010.58,VALID,0,VALID,67.8234,VALID,0.105969,VALID,23.8676,VALID,80,VALID,1.01797,
2009-11-27, 00:11:05,VALID,1010.58,VALID,0,VALID,67.8311,VALID,0,VALID,23.8499,VALID,64,VALID,0.936719,
2009-11-27, 00:12:05,VALID,1010.58,VALID,0,VALID,67.8616,VALID,0,VALID,23.8694,VALID,70,VALID,0.418359,
2009-11-27, 00:13:05,VALID,1010.61,VALID,0,VALID,67.8921,VALID,0,VALID,23.8286,VALID,56,VALID,1.17539,
2009-11-27, 00:14:05,VALID,1010.62,VALID,0,VALID,67.8921,VALID,0,VALID,23.8304,VALID,57,VALID,0.807813,
2009-11-27, 00:15:05,VALID,1010.63,VALID,0,VALID,67.9073,VALID,0,VALID,23.8304,VALID,56,VALID,1.10273,
2009-11-27, 00:16:05,VALID,1010.61,VALID,0,VALID,67.915,VALID,0,VALID,23.8109,VALID,55,VALID,0.599609,
2009-11-27, 00:17:05,VALID,1010.58,VALID,0,VALID,67.9302,VALID,0,VALID,23.8109,VALID,77,VALID,0.654688,
2009-11-27, 00:18:05,VALID,1010.57,VALID,0,VALID,67.9455,VALID,0,VALID,23.8109,VALID,91,VALID,1.11172,
2009-11-27, 00:19:05,VALID,1010.57,VALID,0,VALID,67.9455,VALID,0,VALID,23.8109,VALID,64,VALID,0.851953,
2009-11-27, 00:20:05,VALID,1010.57,VALID,0,VALID,67.9607,VALID,0,VALID,23.7896,VALID,83,VALID,0.790625,
2009-11-27, 00:21:05,VALID,1010.55,VALID,0,VALID,67.9683,VALID,0,VALID,23.7914,VALID,96,VALID,0.734766,
2009-11-27, 00:22:05,VALID,1010.55,VALID,0,VALID,67.9836,VALID,0,VALID,23.7896,VALID,47,VALID,0.418359,
2009-11-27, 00:23:05,VALID,1010.54,VALID,0,VALID,68.0065,VALID,0,VALID,23.772,VALID,50,VALID,0.813672,
2009-11-27, 00:24:05,VALID,1010.55,VALID,0,VALID,68.0141,VALID,0,VALID,23.7507,VALID,72,VALID,0.630078,
2009-11-27, 00:25:05,VALID,1010.53,VALID,0,VALID,68.0141,VALID,0,VALID,23.772,VALID,85,VALID,0.883594,
2009-11-27, 00:26:05,VALID,1010.52,VALID,0,VALID,68.0446,VALID,0,VALID,23.7507,VALID,97,VALID,0.903906,
2009-11-27, 00:27:05,VALID,1010.53,VALID,0,VALID,68.037,VALID,0,VALID,23.7525,VALID,72,VALID,0.922266,
2009-11-27, 00:28:05,VALID,1010.54,VALID,0,VALID,68.0522,VALID,0,VALID,23.7507,VALID,72,VALID,0.396094,
2009-11-27, 00:29:05,VALID,1010.52,VALID,0,VALID,68.0599,VALID,0,VALID,23.772,VALID,72,VALID,0.301172,
2009-11-27, 00:30:05,VALID,1010.51,VALID,0,VALID,68.0599,VALID,0,VALID,23.772,VALID,71,VALID,0.279297,
2009-11-27, 00:31:05,VALID,1010.47,VALID,0,VALID,68.0751,VALID,0,VALID,23.772,VALID,55,VALID,0.580859,
2009-11-27, 00:32:05,VALID,1010.47,VALID,0,VALID,68.0827,VALID,0,VALID,23.7525,VALID,53,VALID,0.189063,
2009-11-27, 00:33:05,VALID,1010.48,VALID,0,VALID,68.0751,VALID,0,VALID,23.7507,VALID,60,VALID,0.570313,
2009-11-27, 00:34:05,VALID,1010.49,VALID,0,VALID,68.098,VALID,0,VALID,23.7525,VALID,100,VALID,0.761328,
2009-11-27, 00:35:05,VALID,1010.46,VALID,0,VALID,68.098,VALID,0,VALID,23.7525,VALID,103,VALID,0.64375,
2009-11-27, 00:36:05,VALID,1010.45,VALID,0,VALID,68.098,VALID,0.105969,VALID,23.7117,VALID,103,VALID,0.673828,
2009-11-27, 00:37:05,VALID,1010.42,VALID,0,VALID,68.1056,VALID,0,VALID,23.733,VALID,79,VALID,1.06172,
2009-11-27, 00:38:05,VALID,1010.44,VALID,0,VALID,68.098,VALID,0.105969,VALID,23.7117,VALID,117,VALID,0.554688,
2009-11-27, 00:39:05,VALID,1010.41,VALID,0,VALID,68.1209,VALID,0,VALID,23.733,VALID,117,VALID,0.444531,
2009-11-27, 00:40:05,VALID,1010.42,VALID,0,VALID,68.1209,VALID,0,VALID,23.733,VALID,115,VALID,0.467969,
2009-11-27, 00:41:05,VALID,1010.4,VALID,0,VALID,68.1437,VALID,0.105969,VALID,23.6922,VALID,94,VALID,0.696094,
2009-11-27, 00:42:05,VALID,1010.36,VALID,0,VALID,68.1361,VALID,0,VALID,23.6922,VALID,63,VALID,1.13789,
2009-11-27, 00:43:05,VALID,1010.39,VALID,0,VALID,68.1361,VALID,0,VALID,23.7135,VALID,39,VALID,0.948047,
2009-11-27, 00:44:05,VALID,1010.39,VALID,0,VALID,68.1285,VALID,0,VALID,23.6922,VALID,29,VALID,0.659375,
2009-11-27, 00:45:05,VALID,1010.4,VALID,0,VALID,68.1437,VALID,0,VALID,23.6727,VALID,29,VALID,0.323438,
2009-11-27, 00:46:05,VALID,1010.37,VALID,0,VALID,68.1285,VALID,0,VALID,23.694,VALID,29,VALID,0.0328125,
2009-11-27, 00:47:05,VALID,1010.39,VALID,0,VALID,68.1437,VALID,0,VALID,23.6727,VALID,29,VALID,0.282031,
2009-11-27, 00:48:05,VALID,1010.35,VALID,0,VALID,68.1437,VALID,0,VALID,23.6745,VALID,104,VALID,0.387109,
2009-11-27, 00:49:05,VALID,1010.36,VALID,0,VALID,68.1514,VALID,0,VALID,23.655,VALID,105,VALID,0.288672,
2009-11-27, 00:50:05,VALID,1010.39,VALID,0,VALID,68.159,VALID,0,VALID,23.6338,VALID,122,VALID,0.520703,
2009-11-27, 00:51:05,VALID,1010.37,VALID,0,VALID,68.1742,VALID,0,VALID,23.6356,VALID,121,VALID,0.502734,
2009-11-27, 00:52:05,VALID,1010.34,VALID,0,VALID,68.1742,VALID,0,VALID,23.6143,VALID,101,VALID,0.683203,
2009-11-27, 00:53:05,VALID,1010.34,VALID,0,VALID,68.1819,VALID,0,VALID,23.6161,VALID,79,VALID,1.04219,
2009-11-27, 00:54:05,VALID,1010.33,VALID,0,VALID,68.1819,VALID,0,VALID,23.6161,VALID,82,VALID,0.795313,
2009-11-27, 00:55:05,VALID,1010.32,VALID,0,VALID,68.1895,VALID,0,VALID,23.5966,VALID,42,VALID,0.716797,
2009-11-27, 00:56:05,VALID,1010.29,VALID,0,VALID,68.1971,VALID,0,VALID,23.5966,VALID,37,VALID,0.698047,
2009-11-27, 00:57:05,VALID,1010.28,VALID,0,VALID,68.2124,VALID,0,VALID,23.5771,VALID,56,VALID,0.305859,
2009-11-27, 00:58:05,VALID,1010.22,VALID,0,VALID,68.2352,VALID,0,VALID,23.5558,VALID,56,VALID,0.194922,
2009-11-27, 00:59:05,VALID,1010.21,VALID,0,VALID,68.2352,VALID,0,VALID,23.5363,VALID,56,VALID,0.121875,
2009-11-27, 01:00:05,VALID,1010.2,VALID,0,VALID,68.2505,VALID,0,VALID,23.5363,VALID,96,VALID,0.368359,
2009-11-27, 01:01:05,VALID,1010.21,VALID,0,VALID,68.2429,VALID,0,VALID,23.5169,VALID,84,VALID,0.643359,
2009-11-27, 01:02:05,VALID,1010.21,VALID,0,VALID,68.2581,VALID,0,VALID,23.5381,VALID,44,VALID,0.772656,
2009-11-27, 01:03:05,VALID,1010.15,VALID,0,VALID,68.2962,VALID,0.105969,VALID,23.5186,VALID,54,VALID,0.719141,
2009-11-27, 01:04:05,VALID,1010.17,VALID,0,VALID,68.2886,VALID,0,VALID,23.4992,VALID,46,VALID,0.824609,
2009-11-27, 01:05:05,VALID,1010.17,VALID,0,VALID,68.2962,VALID,0,VALID,23.4992,VALID,102,VALID,0.861328,
2009-11-27, 01:06:05,VALID,1010.16,VALID,0,VALID,68.3039,VALID,0,VALID,23.4797,VALID,91,VALID,0.778516,
2009-11-27, 01:07:05,VALID,1010.16,VALID,0,VALID,68.3191,VALID,0,VALID,23.4797,VALID,90,VALID,0.273438,
2009-11-27, 01:08:05,VALID,1010.16,VALID,0,VALID,68.3039,VALID,0,VALID,23.4797,VALID,90,VALID,0.396484,
2009-11-27, 01:09:05,VALID,1010.16,VALID,0,VALID,68.3344,VALID,0,VALID,23.4584,VALID,93,VALID,0.91875,
2009-11-27, 01:10:05,VALID,1010.16,VALID,0,VALID,68.3268,VALID,0,VALID,23.4602,VALID,83,VALID,0.949219,
2009-11-27, 01:11:05,VALID,1010.13,VALID,0,VALID,68.3344,VALID,0,VALID,23.4407,VALID,81,VALID,0.923437,
2009-11-27, 01:12:05,VALID,1010.12,VALID,0,VALID,68.3573,VALID,0,VALID,23.462,VALID,89,VALID,1.10781,
2009-11-27, 01:13:05,VALID,1010.1,VALID,0,VALID,68.3649,VALID,0,VALID,23.4212,VALID,99,VALID,1.33086,
2009-11-27, 01:14:05,VALID,1010.08,VALID,0,VALID,68.3725,VALID,0,VALID,23.4212,VALID,91,VALID,0.807031,
2009-11-27, 01:15:05,VALID,1010.07,VALID,0,VALID,68.3573,VALID,0,VALID,23.4212,VALID,78,VALID,1.16406,
2009-11-27, 01:16:05,VALID,1010.06,VALID,0,VALID,68.3801,VALID,0,VALID,23.4425,VALID,94,VALID,0.755078,
2009-11-27, 01:17:05,VALID,1010.03,VALID,0,VALID,68.3725,VALID,0,VALID,23.4212,VALID,88,VALID,0.625,
2009-11-27, 01:18:05,VALID,1010.05,VALID,0,VALID,68.3801,VALID,0,VALID,23.423,VALID,72,VALID,0.842578,
2009-11-27, 01:19:05,VALID,1010.02,VALID,0,VALID,68.403,VALID,0,VALID,23.4017,VALID,69,VALID,0.600781,
2009-11-27, 01:20:05,VALID,1009.98,VALID,0,VALID,68.403,VALID,0,VALID,23.423,VALID,90,VALID,0.778906,
2009-11-27, 01:21:05,VALID,1009.98,VALID,0,VALID,68.3878,VALID,0,VALID,23.423,VALID,106,VALID,0.922266,
2009-11-27, 01:22:05,VALID,1009.99,VALID,0,VALID,68.3878,VALID,0,VALID,23.423,VALID,96,VALID,0.615234,
2009-11-27, 01:23:05,VALID,1009.95,VALID,0,VALID,68.3954,VALID,0,VALID,23.423,VALID,85,VALID,0.537891,
2009-11-27, 01:24:05,VALID,1009.97,VALID,0,VALID,68.403,VALID,0,VALID,23.4017,VALID,83,VALID,0.623828,
2009-11-27, 01:25:05,VALID,1009.96,VALID,0,VALID,68.4183,VALID,0,VALID,23.3823,VALID,77,VALID,0.432422,
2009-11-27, 01:26:05,VALID,1009.96,VALID,0,VALID,68.3954,VALID,0,VALID,23.4017,VALID,61,VALID,0.839453,
2009-11-27, 01:27:05,VALID,1009.93,VALID,0,VALID,68.4183,VALID,0,VALID,23.4017,VALID,65,VALID,0.566406,
2009-11-27, 01:28:05,VALID,1009.97,VALID,0,VALID,68.4106,VALID,0,VALID,23.4017,VALID,66,VALID,0.455859,
2009-11-27, 01:29:05,VALID,1009.94,VALID,0,VALID,68.4183,VALID,0,VALID,23.3628,VALID,74,VALID,0.507422,
2009-11-27, 01:30:05,VALID,1009.92,VALID,0,VALID,68.4106,VALID,0,VALID,23.4035,VALID,102,VALID,0.471875,
2009-11-27, 01:31:05,VALID,1009.89,VALID,0,VALID,68.4183,VALID,0,VALID,23.3628,VALID,93,VALID,0.757422,
2009-11-27, 01:32:05,VALID,1009.87,VALID,0,VALID,68.403,VALID,0,VALID,23.3823,VALID,92,VALID,0.475391,
2009-11-27, 01:33:05,VALID,1009.84,VALID,0,VALID,68.4106,VALID,0,VALID,23.384,VALID,92,VALID,0.33125,
2009-11-27, 01:34:05,VALID,1009.82,VALID,0,VALID,68.4335,VALID,0,VALID,23.384,VALID,78,VALID,0.641406,
2009-11-27, 01:35:05,VALID,1009.78,VALID,0,VALID,68.4335,VALID,0,VALID,23.3628,VALID,68,VALID,0.364844,
2009-11-27, 01:36:05,VALID,1009.79,VALID,0,VALID,68.4183,VALID,0,VALID,23.3433,VALID,90,VALID,0.621875,
2009-11-27, 01:37:05,VALID,1009.75,VALID,0,VALID,68.4183,VALID,0,VALID,23.384,VALID,81,VALID,0.573047,
2009-11-27, 01:38:05,VALID,1009.76,VALID,0,VALID,68.4411,VALID,0,VALID,23.3451,VALID,75,VALID,0.653906,
2009-11-27, 01:39:05,VALID,1009.77,VALID,0,VALID,68.4488,VALID,0,VALID,23.3451,VALID,74,VALID,0.847266,
2009-11-27, 01:40:05,VALID,1009.76,VALID,0,VALID,68.4183,VALID,0,VALID,23.3645,VALID,63,VALID,0.689062,
2009-11-27, 01:41:05,VALID,1009.76,VALID,0,VALID,68.4259,VALID,0,VALID,23.3415,VALID,47,VALID,0.619141,
2009-11-27, 01:42:05,VALID,1009.78,VALID,0,VALID,68.4564,VALID,0,VALID,23.3433,VALID,47,VALID,0.340234,
2009-11-27, 01:43:05,VALID,1009.75,VALID,0,VALID,68.4259,VALID,0.105969,VALID,23.322,VALID,49,VALID,0.591016,
2009-11-27, 01:44:05,VALID,1009.76,VALID,0,VALID,68.4411,VALID,0.105969,VALID,23.3433,VALID,49,VALID,0.185156,
2009-11-27, 01:45:05,VALID,1009.73,VALID,0,VALID,68.4488,VALID,0,VALID,23.3026,VALID,49,VALID,0.396484,
2009-11-27, 01:46:05,VALID,1009.72,VALID,0,VALID,68.4488,VALID,0,VALID,23.3238,VALID,49,VALID,0.446484,
2009-11-27, 01:47:05,VALID,1009.72,VALID,0,VALID,68.4564,VALID,0.105969,VALID,23.3238,VALID,45,VALID,0.648047,
2009-11-27, 01:48:05,VALID,1009.74,VALID,0,VALID,68.4488,VALID,0.105969,VALID,23.3043,VALID,43,VALID,0.278516,
2009-11-27, 01:49:05,VALID,1009.71,VALID,0,VALID,68.4488,VALID,0.105969,VALID,23.2831,VALID,43,VALID,0.419922,
2009-11-27, 01:50:05,VALID,1009.71,VALID,0,VALID,68.464,VALID,0.105969,VALID,23.3043,VALID,43,VALID,0.0949219,
2009-11-27, 01:51:05,VALID,1009.7,VALID,0,VALID,68.4411,VALID,0,VALID,23.2848,VALID,43,VALID,0.111719,
2009-11-27, 01:52:05,VALID,1009.72,VALID,0,VALID,68.4716,VALID,0.105969,VALID,23.2848,VALID,43,VALID,0,
2009-11-27, 01:53:05,VALID,1009.7,VALID,0,VALID,68.4793,VALID,0,VALID,23.2636,VALID,43,VALID,0,
2009-11-27, 01:54:05,VALID,1009.67,VALID,0,VALID,68.4564,VALID,0.105969,VALID,23.2636,VALID,43,VALID,0,
2009-11-27, 01:55:05,VALID,1009.65,VALID,0,VALID,68.4488,VALID,0.105969,VALID,23.2636,VALID,47,VALID,0,
2009-11-27, 01:56:05,VALID,1009.67,VALID,0,VALID,68.4793,VALID,0,VALID,23.2671,VALID,49,VALID,0,
2009-11-27, 01:57:05,VALID,1009.68,VALID,0,VALID,68.4716,VALID,0,VALID,23.2459,VALID,49,VALID,0,
2009-11-27, 01:58:05,VALID,1009.69,VALID,0,VALID,68.4716,VALID,0,VALID,23.2459,VALID,49,VALID,0,
2009-11-27, 01:59:05,VALID,1009.68,VALID,0,VALID,68.4716,VALID,0,VALID,23.2459,VALID,49,VALID,0,
2009-11-27, 02:00:05,VALID,1009.67,VALID,0,VALID,68.4716,VALID,0,VALID,23.2459,VALID,49,VALID,0,
2009-11-27, 02:01:05,VALID,1009.67,VALID,0,VALID,68.4869,VALID,0,VALID,23.2476,VALID,49,VALID,0,
2009-11-27, 02:02:05,VALID,1009.69,VALID,0,VALID,68.4945,VALID,0,VALID,23.2671,VALID,49,VALID,0,
2009-11-27, 02:03:05,VALID,1009.7,VALID,0,VALID,68.4869,VALID,0,VALID,23.2459,VALID,49,VALID,0,
2009-11-27, 02:04:05,VALID,1009.7,VALID,0,VALID,68.4869,VALID,0,VALID,23.2476,VALID,49,VALID,0,
2009-11-27, 02:05:05,VALID,1009.68,VALID,0,VALID,68.4945,VALID,0,VALID,23.2264,VALID,49,VALID,0,
2009-11-27, 02:06:05,VALID,1009.68,VALID,0,VALID,68.5021,VALID,0,VALID,23.2459,VALID,49,VALID,0,
2009-11-27, 02:07:05,VALID,1009.64,VALID,0,VALID,68.464,VALID,0,VALID,23.2264,VALID,49,VALID,0,
2009-11-27, 02:08:05,VALID,1009.64,VALID,0,VALID,68.4945,VALID,0,VALID,23.2671,VALID,49,VALID,0,
2009-11-27, 02:09:05,VALID,1009.65,VALID,0,VALID,68.4869,VALID,0,VALID,23.2671,VALID,49,VALID,0,
2009-11-27, 02:10:05,VALID,1009.64,VALID,0,VALID,68.4793,VALID,0,VALID,23.2671,VALID,49,VALID,0,
2009-11-27, 02:11:05,VALID,1009.63,VALID,0,VALID,68.4945,VALID,0.105969,VALID,23.2654,VALID,49,VALID,0,
2009-11-27, 02:12:05,VALID,1009.64,VALID,0,VALID,68.4869,VALID,0,VALID,23.2441,VALID,49,VALID,0,
2009-11-27, 02:13:05,VALID,1009.67,VALID,0,VALID,68.4945,VALID,0.105969,VALID,23.2441,VALID,49,VALID,0,
2009-11-27, 02:14:05,VALID,1009.67,VALID,0,VALID,68.4869,VALID,0.105969,VALID,23.2654,VALID,49,VALID,0,
2009-11-27, 02:15:05,VALID,1009.67,VALID,0,VALID,68.5021,VALID,0,VALID,23.2654,VALID,49,VALID,0,
2009-11-27, 02:16:04,VALID,1009.68,VALID,0,VALID,68.5021,VALID,0.105969,VALID,23.2459,VALID,49,VALID,0,
2009-11-27, 02:17:04,VALID,1009.7,VALID,0,VALID,68.5021,VALID,0,VALID,23.2246,VALID,49,VALID,0,
2009-11-27, 02:18:04,VALID,1009.68,VALID,0,VALID,68.4945,VALID,0,VALID,23.2654,VALID,54,VALID,0,
2009-11-27, 02:19:04,VALID,1009.66,VALID,0,VALID,68.5021,VALID,0.105969,VALID,23.2441,VALID,54,VALID,0,
2009-11-27, 02:20:04,VALID,1009.68,VALID,0,VALID,68.5021,VALID,0,VALID,23.2441,VALID,54,VALID,0,
2009-11-27, 02:21:04,VALID,1009.69,VALID,0,VALID,68.5174,VALID,0.105969,VALID,23.2246,VALID,54,VALID,0,
2009-11-27, 02:22:04,VALID,1009.67,VALID,0,VALID,68.4945,VALID,0.105969,VALID,23.2441,VALID,54,VALID,0,
2009-11-27, 02:23:04,VALID,1009.67,VALID,0,VALID,68.5098,VALID,0.105969,VALID,23.2441,VALID,54,VALID,0,
2009-11-27, 02:24:04,VALID,1009.67,VALID,0,VALID,68.5174,VALID,0,VALID,23.2459,VALID,54,VALID,0,
2009-11-27, 02:25:04,VALID,1009.68,VALID,0,VALID,68.5098,VALID,0,VALID,23.2264,VALID,54,VALID,0,
2009-11-27, 02:26:04,VALID,1009.7,VALID,0,VALID,68.5021,VALID,0,VALID,23.2264,VALID,54,VALID,0,
2009-11-27, 02:27:04,VALID,1009.67,VALID,0,VALID,68.4869,VALID,0,VALID,23.2264,VALID,54,VALID,0,
2009-11-27, 02:28:04,VALID,1009.69,VALID,0,VALID,68.4945,VALID,0,VALID,23.2459,VALID,54,VALID,0,
2009-11-27, 02:29:04,VALID,1009.67,VALID,0,VALID,68.4793,VALID,0,VALID,23.2459,VALID,54,VALID,0,
2009-11-27, 02:30:04,VALID,1009.66,VALID,0,VALID,68.4793,VALID,0,VALID,23.2459,VALID,54,VALID,0,
2009-11-27, 02:31:04,VALID,1009.64,VALID,0,VALID,68.4869,VALID,0,VALID,23.2459,VALID,85,VALID,0,
2009-11-27, 02:32:04,VALID,1009.63,VALID,0,VALID,68.4716,VALID,0,VALID,23.2848,VALID,142,VALID,0,
2009-11-27, 02:33:04,VALID,1009.61,VALID,0,VALID,68.5021,VALID,0,VALID,23.2671,VALID,139,VALID,0,
2009-11-27, 02:34:04,VALID,1009.58,VALID,0,VALID,68.5021,VALID,0,VALID,23.2069,VALID,139,VALID,0,
2009-11-27, 02:35:04,VALID,1009.57,VALID,0,VALID,68.5479,VALID,0,VALID,23.1874,VALID,139,VALID,0,
2009-11-27, 02:36:04,VALID,1009.49,VALID,0,VALID,68.5479,VALID,0,VALID,23.1892,VALID,139,VALID,0,
2009-11-27, 02:37:04,VALID,1009.54,VALID,0,VALID,68.5098,VALID,0,VALID,23.1874,VALID,103,VALID,1.00469,
2009-11-27, 02:38:04,VALID,1009.52,VALID,0,VALID,68.4793,VALID,0,VALID,23.2264,VALID,109,VALID,0.944922,
2009-11-27, 02:39:04,VALID,1009.5,VALID,0,VALID,68.4869,VALID,0,VALID,23.2476,VALID,123,VALID,0.765625,
2009-11-27, 02:40:04,VALID,1009.51,VALID,0,VALID,68.4793,VALID,0,VALID,23.2459,VALID,105,VALID,0.783594,
2009-11-27, 02:41:04,VALID,1009.5,VALID,0,VALID,68.464,VALID,0.105969,VALID,23.2441,VALID,116,VALID,0.771094,
2009-11-27, 02:42:04,VALID,1009.49,VALID,0,VALID,68.4793,VALID,0,VALID,23.2441,VALID,110,VALID,0.674609,
2009-11-27, 02:43:04,VALID,1009.47,VALID,0,VALID,68.464,VALID,0.105969,VALID,23.2636,VALID,110,VALID,0.548828,
2009-11-27, 02:44:04,VALID,1009.51,VALID,0,VALID,68.4716,VALID,0.105969,VALID,23.2654,VALID,110,VALID,0.544922,
2009-11-27, 02:45:04,VALID,1009.51,VALID,0,VALID,68.4793,VALID,0.105969,VALID,23.2636,VALID,110,VALID,0.422656,
2009-11-27, 02:46:04,VALID,1009.51,VALID,0,VALID,68.4793,VALID,0.105969,VALID,23.2441,VALID,106,VALID,0.391406,
2009-11-27, 02:47:04,VALID,1009.48,VALID,0,VALID,68.4869,VALID,0,VALID,23.2441,VALID,102,VALID,0.402344,
2009-11-27, 02:48:04,VALID,1009.49,VALID,0,VALID,68.4945,VALID,0.105969,VALID,23.2654,VALID,80,VALID,0.358594,
2009-11-27, 02:49:04,VALID,1009.49,VALID,0,VALID,68.4869,VALID,0.105969,VALID,23.2246,VALID,67,VALID,0.672266,
2009-11-27, 02:50:04,VALID,1009.45,VALID,0,VALID,68.5021,VALID,0.105969,VALID,23.2246,VALID,76,VALID,0.907812,
2009-11-27, 02:51:04,VALID,1009.48,VALID,0,VALID,68.4945,VALID,0.105969,VALID,23.2459,VALID,75,VALID,1.1293,
2009-11-27, 02:52:04,VALID,1009.48,VALID,0,VALID,68.4869,VALID,0.105969,VALID,23.2246,VALID,93,VALID,1.24844,
2009-11-27, 02:53:04,VALID,1009.47,VALID,0,VALID,68.4793,VALID,0.105969,VALID,23.2051,VALID,36,VALID,0.864062,
2009-11-27, 02:54:04,VALID,1009.47,VALID,0,VALID,68.5174,VALID,0.211938,VALID,23.2051,VALID,77,VALID,1.00664,
2009-11-27, 02:55:04,VALID,1009.52,VALID,0,VALID,68.4945,VALID,0.105969,VALID,23.2051,VALID,82,VALID,1.51289,
2009-11-27, 02:56:04,VALID,1009.51,VALID,0,VALID,68.4945,VALID,0,VALID,23.1874,VALID,60,VALID,1.06836,
2009-11-27, 02:57:04,VALID,1009.52,VALID,0,VALID,68.4945,VALID,0,VALID,23.2069,VALID,83,VALID,0.888281,
2009-11-27, 02:58:04,VALID,1009.52,VALID,0,VALID,68.5098,VALID,0,VALID,23.1679,VALID,91,VALID,1.05078,
2009-11-27, 02:59:04,VALID,1009.53,VALID,0,VALID,68.5174,VALID,0,VALID,23.1892,VALID,80,VALID,1.07461,
2009-11-27, 03:00:04,VALID,1009.54,VALID,0,VALID,68.5021,VALID,0,VALID,23.1679,VALID,96,VALID,1.12695,
2009-11-27, 03:01:04,VALID,1009.55,VALID,0,VALID,68.5021,VALID,0,VALID,23.1697,VALID,72,VALID,1.1543,
2009-11-27, 03:02:04,VALID,1009.57,VALID,0,VALID,68.4945,VALID,0,VALID,23.1679,VALID,81,VALID,1.08594,
2009-11-27, 03:03:04,VALID,1009.56,VALID,0,VALID,68.5098,VALID,0,VALID,23.1697,VALID,88,VALID,1.12305,
2009-11-27, 03:04:04,VALID,1009.54,VALID,0,VALID,68.4793,VALID,0,VALID,23.1485,VALID,83,VALID,0.891016,
2009-11-27, 03:05:04,VALID,1009.54,VALID,0,VALID,68.5021,VALID,0,VALID,23.1697,VALID,82,VALID,0.580078,
2009-11-27, 03:06:04,VALID,1009.56,VALID,0,VALID,68.464,VALID,0,VALID,23.1485,VALID,88,VALID,0.633203,
2009-11-27, 03:07:04,VALID,1009.56,VALID,0,VALID,68.4488,VALID,0,VALID,23.1892,VALID,57,VALID,0.875,
2009-11-27, 03:08:04,VALID,1009.53,VALID,0,VALID,68.4869,VALID,0,VALID,23.1502,VALID,84,VALID,0.999609,
2009-11-27, 03:09:04,VALID,1009.52,VALID,0,VALID,68.5021,VALID,0,VALID,23.1697,VALID,63,VALID,0.646094,
2009-11-27, 03:10:04,VALID,1009.55,VALID,0,VALID,68.5021,VALID,0,VALID,23.129,VALID,64,VALID,0.557422,
2009-11-27, 03:11:04,VALID,1009.55,VALID,0,VALID,68.4869,VALID,0,VALID,23.1272,VALID,65,VALID,1.21563,
2009-11-27, 03:12:04,VALID,1009.56,VALID,0,VALID,68.5021,VALID,0.105969,VALID,23.129,VALID,90,VALID,1.25234,
2009-11-27, 03:13:04,VALID,1009.55,VALID,0,VALID,68.4945,VALID,0.105969,VALID,23.129,VALID,114,VALID,1.17695,
2009-11-27, 03:14:04,VALID,1009.57,VALID,0,VALID,68.4869,VALID,0,VALID,23.0688,VALID,70,VALID,0.693359,
2009-11-27, 03:15:04,VALID,1009.55,VALID,0,VALID,68.4716,VALID,0.105969,VALID,23.1095,VALID,88,VALID,0.636719,
2009-11-27, 03:16:04,VALID,1009.57,VALID,0,VALID,68.5021,VALID,0,VALID,23.0493,VALID,99,VALID,1.13281,
2009-11-27, 03:17:04,VALID,1009.58,VALID,0,VALID,68.5174,VALID,0.105969,VALID,23.0493,VALID,83,VALID,1.02813,
2009-11-27, 03:18:04,VALID,1009.59,VALID,0,VALID,68.5174,VALID,0.105969,VALID,23.0511,VALID,77,VALID,0.639453,
2009-11-27, 03:19:04,VALID,1009.64,VALID,0,VALID,68.5021,VALID,0,VALID,23.0298,VALID,88,VALID,0.893359,
2009-11-27, 03:20:04,VALID,1009.62,VALID,0,VALID,68.464,VALID,0,VALID,23.0511,VALID,83,VALID,0.909766,
2009-11-27, 03:21:04,VALID,1009.58,VALID,0,VALID,68.4869,VALID,0.105969,VALID,23.0298,VALID,81,VALID,0.577344,
2009-11-27, 03:22:04,VALID,1009.57,VALID,0,VALID,68.5021,VALID,0.105969,VALID,22.9909,VALID,80,VALID,0.740625,
2009-11-27, 03:23:04,VALID,1009.59,VALID,0,VALID,68.4945,VALID,0.105969,VALID,23.0316,VALID,86,VALID,0.805469,
2009-11-27, 03:24:04,VALID,1009.62,VALID,0,VALID,68.4869,VALID,0,VALID,23.0103,VALID,98,VALID,0.835547,
2009-11-27, 03:25:04,VALID,1009.59,VALID,0,VALID,68.4716,VALID,0.105969,VALID,23.0103,VALID,80,VALID,0.913281,
2009-11-27, 03:26:04,VALID,1009.57,VALID,0,VALID,68.4564,VALID,0.105969,VALID,23.0316,VALID,72,VALID,0.410156,
2009-11-27, 03:27:04,VALID,1009.56,VALID,0,VALID,68.4716,VALID,0,VALID,23.0103,VALID,95,VALID,0.731641,
2009-11-27, 03:28:04,VALID,1009.57,VALID,0,VALID,68.4488,VALID,0,VALID,23.0316,VALID,101,VALID,1.23633,
2009-11-27, 03:29:04,VALID,1009.56,VALID,0,VALID,68.4716,VALID,0.105969,VALID,23.0121,VALID,79,VALID,1.18672,
2009-11-27, 03:30:04,VALID,1009.55,VALID,0,VALID,68.4716,VALID,0,VALID,22.9926,VALID,85,VALID,1.17539,
2009-11-27, 03:31:04,VALID,1009.52,VALID,0,VALID,68.4716,VALID,0.105969,VALID,22.9714,VALID,90,VALID,1.01875,
2009-11-27, 03:32:04,VALID,1009.51,VALID,0,VALID,68.4488,VALID,0.105969,VALID,22.9714,VALID,118,VALID,0.722266,
2009-11-27, 03:33:04,VALID,1009.51,VALID,0,VALID,68.4564,VALID,0.105969,VALID,22.9926,VALID,107,VALID,0.789453,
2009-11-27, 03:34:04,VALID,1009.5,VALID,0,VALID,68.4488,VALID,0.105969,VALID,22.9714,VALID,99,VALID,0.780469,
2009-11-27, 03:35:04,VALID,1009.5,VALID,0,VALID,68.4564,VALID,0.105969,VALID,22.9714,VALID,89,VALID,1.02148,
2009-11-27, 03:36:04,VALID,1009.47,VALID,0,VALID,68.464,VALID,0.105969,VALID,22.9714,VALID,93,VALID,0.895312,
2009-11-27, 03:37:04,VALID,1009.48,VALID,0,VALID,68.4488,VALID,0,VALID,22.9731,VALID,85,VALID,0.903906,
2009-11-27, 03:38:04,VALID,1009.47,VALID,0,VALID,68.4488,VALID,0,VALID,22.9731,VALID,87,VALID,0.392969,
2009-11-27, 03:39:04,VALID,1009.47,VALID,0,VALID,68.4335,VALID,0,VALID,22.9926,VALID,88,VALID,0.594531,
2009-11-27, 03:40:04,VALID,1009.46,VALID,0,VALID,68.4411,VALID,0,VALID,22.9519,VALID,106,VALID,1.08594,
2009-11-27, 03:41:04,VALID,1009.44,VALID,0,VALID,68.4716,VALID,0,VALID,22.9324,VALID,85,VALID,0.6,
2009-11-27, 03:42:04,VALID,1009.41,VALID,0,VALID,68.4411,VALID,0.105969,VALID,22.9324,VALID,80,VALID,0.682422,
2009-11-27, 03:43:04,VALID,1009.38,VALID,0,VALID,68.4335,VALID,0.105969,VALID,22.9519,VALID,56,VALID,0.898828,
2009-11-27, 03:44:04,VALID,1009.4,VALID,0,VALID,68.4335,VALID,0,VALID,22.9324,VALID,82,VALID,1.07734,
2009-11-27, 03:45:04,VALID,1009.37,VALID,0,VALID,68.464,VALID,0.105969,VALID,22.9342,VALID,96,VALID,0.683594,